Location: Brantwood
(40.7293°N, 74.3399°W)
Time: 10:09:55
(UTC+00:00)

Daily predictions for brighter satellites

Satellite Brightness Start Highest point End
(mag) Time Altitude Azimuth Time Altitude Azimuth Time Altitude Azimuth
Cosmos 2237 Rocket 2.5 21:51:56 10° SSW 21:57:36 74° WNW 22:03:19 10° NNE
CZ-4B R/B 3.9 21:58:16 10° NNW 22:01:01 22° WNW 22:03:42 10° WSW
Cosmos 921 Rocket 3.9 21:59:29 10° N 22:03:10 27° ENE 22:06:52 10° SE
Cosmos 2333 Rocket 4.1 21:59:48 10° WSW 22:04:34 26° NW 22:09:22 10° N
OAO 3 Rocket 4.2 22:01:04 10° WSW 22:05:27 41° S 22:09:53 10° ESE
COBE Rocket 4.0 22:00:56 10° NNE 22:05:31 52° E 22:10:08 10° S
Cosmos 2219 Rocket 4.1 22:01:07 10° WSW 22:05:43 26° NW 22:10:23 10° N
Aureole 1 Rocket 2.1 22:03:58 10° SSW 22:06:55 71° ESE 22:10:07 10° NNE
Cosmos 1943 Rocket 3.6 22:07:35 10° N 22:11:07 17° NE 22:14:37 10° E
AQUARIUS 4.3 22:08:28 10° SSE 22:12:51 55° ENE 22:17:15 10° N
Cosmos 1174 4.2 22:08:51 10° SSW 22:14:07 75° ESE 22:18:17 10° NE
H-2A R/B 2.7 22:11:37 10° SSE 22:15:13 55° ENE 22:18:50 10° N
OAO 2 Rocket 4.4 22:11:36 10° WSW 22:16:15 40° S 22:20:57 10° ESE
Cosmos 1441 Rocket 3.7 22:13:17 10° N 22:16:51 37° ENE 22:20:20 10° SE
Nadezhda 4 Rocket 4.3 22:12:18 10° SSW 22:18:38 76° W 22:24:58 10° N
Cosmos 1975 4.3 22:17:31 10° NNE 22:20:14 17° ENE 22:22:56 10° ESE
USA 215 3.7 22:14:37 10° NE 22:21:01 57° NW 22:27:21 10° WSW
Shenzhou-11 Module 2.7 22:21:56 10° W 22:24:36 47° SSW 22:27:14 10° SE
SMAP 3.0 22:20:15 10° SSE 22:24:53 82° ENE 22:29:34 10° N
Genesis I 3.1 22:23:12 10° NNW 22:27:04 68° NE 22:30:52 10° SE
Cosmos 1140 Rocket 3.9 22:23:17 10° S 22:28:04 42° ESE 22:32:53 10° NNE
Abrixas rocket 2.8 22:25:20 10° SSW 22:28:10 38° SE 22:30:01 18° E
Cosmos 1782 Rocket 3.8 22:25:59 10° N 22:30:10 45° E 22:34:19 10° SSE
CZ-4C R/B 3.6 22:27:14 10° SE 22:30:11 16° ESE 22:31:50 14° E
Envisat 3.2 22:26:18 10° SE 22:31:10 49° ENE 22:36:04 10° N
SKYMED 2 4.3 22:27:56 10° NNE 22:31:53 33° E 22:35:47 10° SSE
Cosmos 1666 2.6 22:29:10 10° N 22:32:55 85° W 22:36:38 10° S
Cosmos 1703 Rocket 3.6 22:33:58 10° S 22:38:27 87° W 22:42:58 10° N
Cosmos 2026 Rocket 3.9 22:33:59 10° S 22:39:59 71° E 22:46:02 10° NNE
Cosmos 407 Rocket 3.4 22:34:57 10° SSW 22:40:07 82° ESE 22:45:25 10° NNE
Okean 2 Rocket 3.9 22:38:37 10° NNE 22:42:30 28° ENE 22:46:22 10° SE
Cosmos 2221 Rocket 4.2 22:39:16 10° SSE 22:43:19 35° E 22:46:40 14° NNE
Cosmos 2297 3.6 22:37:37 10° NNW 22:43:20 75° ENE 22:48:58 10° SSE
Sich 1 Rocket 3.6 22:42:14 10° N 22:46:33 52° E 22:50:49 10° SSE
YAOGAN 6 2.9 22:43:55 10° SE 22:47:16 41° ENE 22:50:40 10° N
NOAA 12 4.0 22:42:03 10° SSE 22:47:20 83° ENE 22:52:39 10° NNW
STARLINK-48 4.0 22:44:46 10° SSW 22:48:26 42° SE 22:50:06 26° E
USA 267 3.2 22:46:59 10° SE 22:53:30 78° NE 23:00:04 10° NW
ISS 0.0 22:53:47 10° WSW 22:54:14 10° SW 22:54:40 10° SW
CZ-4 R/B 4.4 22:59:21 10° SSE 23:03:26 59° ENE 23:07:32 10° N
Cosmos 1417 Rocket 4.4 22:58:33 10° N 23:04:37 60° E 23:10:41 10° SSE
USA 229 DEB 4.5 23:00:34 10° NNW 23:07:04 34° NE 23:09:46 27° E
USA 229 4.5 23:00:40 10° NNW 23:07:09 34° NE 23:09:47 27° ENE
Cosmos 1743 2.8 23:04:28 10° N 23:08:21 79° W 23:12:13 10° S
Meteor 2-9 Rocket 4.3 23:04:35 10° N 23:10:22 57° ENE 23:16:00 10° SSE
NOAA 11 4.5 23:05:56 10° SE 23:11:01 42° ENE 23:16:08 10° N
Okean 1-7 4.2 23:07:28 10° SSW 23:11:36 43° WNW 23:15:48 10° N
Cosmos 1943 3.7 23:10:06 10° S 23:15:14 37° ESE 23:16:07 35° E
Okean-O 3.6 23:13:53 10° S 23:18:10 48° W 23:22:28 10° NNW
SL-4 R/B 3.7 23:15:21 10° NW 23:17:48 20° N 23:17:48 20° N
Meteor 1-18 Rocket 4.4 23:12:50 10° SSW 23:18:32 72° W 23:24:10 10° N
Delta 2 Rocket 4.4 23:14:52 10° WSW 23:19:45 45° S 23:21:18 33° SE
Okean 1 4.3 23:16:03 10° SSW 23:19:53 47° W 23:23:44 10° N
COSMO-SKYMED 1 2.8 23:15:59 12° N 23:19:58 71° WNW 23:24:17 10° SSW
Cosmos 1867 3.5 23:15:39 10° NNW 23:21:08 85° NE 23:26:34 10° SSE
YAOGAN 1 2.4 23:17:01 10° SSE 23:21:17 66° ENE 23:25:35 10° N
Cosmos 1241 Rocket 4.4 23:15:16 10° SSW 23:21:40 89° WNW 23:25:33 25° NNE
Lacrosse 5 1.9 23:21:30 10° SSW 23:26:30 61° SE 23:27:27 51° E
Cosmos 2369 Rocket 2.2 23:24:47 10° NNW 23:30:18 53° ENE 23:31:27 45° E
Cosmos 1655 Rocket 3.9 23:24:03 10° S 23:30:21 85° E 23:36:39 10° N
SL-16 R/B 3.7 23:28:34 10° WSW 23:33:41 34° WNW 23:38:48 10° N
CZ-4 R/B 1.6 23:30:56 10° S 23:34:46 64° WSW 23:38:37 10° NNW
Meteor 2-13 Rocket 4.4 23:31:46 10° S 23:37:49 85° W 23:43:57 10° N
CZ-3B R/B 3.8 23:34:48 10° SSW 23:38:13 17° SSE 23:39:07 16° SE
Cosmos 1603 3.6 23:34:53 10° SSW 23:40:36 83° ESE 23:42:25 46° NNE
DMSP B5D1-3 4.3 23:41:51 57° NE 23:42:53 77° ESE 23:47:58 10° S
Okean 3 4.0 23:42:11 10° SSW 23:46:18 56° W 23:47:24 41° NNW
IRIDIUM 104 4.3 23:47:19 10° S 23:52:31 81° W 23:54:45 36° N
